Regional Weather Roundup
Issued by NWS Portland, ME

Current Version | Previous Version | Text Only | Print | Product List | Glossary Off
Versions: 1 2 3 4 5 6 7 8 9 10 11 12 13 14 15 16 17 18 19 20 21 22 23 24 25 26 27 28 29 30 31 32 33 34 35 36 37 38 39 40 41 42 43 44 45 46 47 48 49 50
000 ASUS41 KGYX 300610 RWRGYX WEATHER ROUNDUP FOR MAINE AND NEW HAMPSHIRE NATIONAL WEATHER SERVICE GRAY ME 100 AM EST FRI JAN 30 2015 MEZ002-005-006-010-012-015-018-020-021-024-026-027-029-300700- MAINE CITY SKY/WX TMP DP RH WIND PRES REMARKS PORTLAND CLOUDY 22 15 75 W5 30.03F 6HR MIN TEMP: 19; 6HR MAX TEMP: 23; SANFORD MOCLDY 19 16 86 CALM 30.02F BAR HARBOR MOCLDY 14 12 92 N3 30.06F WISCASSET CLOUDY 18 13 80 CALM 30.06F 6HR MIN TEMP: 9; 6HR MAX TEMP: 18; ROCKLAND CLOUDY 16 10 79 CALM 30.04F FRYEBURG LGT SNOW 24 20 84 CALM 30.00R FOG 6HR MIN TEMP: 21; 6HR MAX TEMP: 25; 6HR PCP: TRACE; LEWISTONAUBURN CLOUDY 18 9 68 CALM 30.00F AUGUSTA CLOUDY 19 9 65 CALM 30.03F 6HR MIN TEMP: 17; 6HR MAX TEMP: 23; WATERVILLE CLOUDY 18 7 62 CALM 30.00F BANGOR CLOUDY 10 6 84 CALM 30.05F 6HR MIN TEMP: 1; 6HR MAX TEMP: 10; GREENVILLE N/A 17 3 54 SE7 29.91F 6HR MIN TEMP: 16; 6HR MAX TEMP: 18; MILLINOCKET MOCLDY 9 5 84 CALM 30.05F FOG 6HR MIN TEMP: 3; 6HR MAX TEMP: 13; HOULTON PTCLDY 6 2 83 CALM 30.03S 6HR MIN TEMP: -4; 6HR MAX TEMP: 14; PRESQUE ISLE PTCLDY 16 9 73 SE12 29.99F WCI 3 6HR MIN TEMP: 1; 6HR MAX TEMP: 16; FRENCHVILLE PTCLDY 14 6 70 SE12 29.95F WCI 0 6HR MIN TEMP: 11; 6HR MAX TEMP: 15; CARIBOU PTCLDY 9 4 80 CALM 29.99F 6HR MIN TEMP: 7; 6HR MAX TEMP: 14; $$ NHZ002-005-008-009-011-012-014-300700- NEW HAMPSHIRE CITY SKY/WX TMP DP RH WIND PRES REMARKS PORTSMOUTH FLURRIES 27 20 73 SE5 30.02F ROCHESTER CLOUDY 25 19 78 S5 30.01F 6HR MIN TEMP: 22; 6HR MAX TEMP: 25; NASHUA FLURRIES 27 25 93 CALM 30.00F MANCHESTER LGT SNOW 25 23 92 SE6 29.96F VSB 1 6HR MIN TEMP: 25; 6HR MAX TEMP: 30; 6HR PCP: 0.01; CONCORD LGT SNOW 26 23 88 SE7 29.97F FOG 6HR MIN TEMP: 26; 6HR MAX TEMP: 29; 6HR PCP: 0.02; LACONIA CLOUDY 25 21 86 CALM 29.96F PLYMOUTH LGT SNOW 25 25 100 E5 29.96F BERLIN CLOUDY 26 15 63 SE10 29.87F WCI 16 6HR MIN TEMP: 25; 6HR MAX TEMP: 27; WHITEFIELD CLOUDY 30 17 58 CALM 29.86F 6HR MIN TEMP: 18; 6HR MAX TEMP: 32; JAFFREY LGT SNOW 26 23 88 S7 29.90F FOG 6HR MIN TEMP: 25; 6HR MAX TEMP: 28; 6HR PCP: 0.01; KEENE CLOUDY 25 21 86 CALM 29.93F LEBANON LGT SNOW 24 21 88 CALM 29.89F FOG 6HR MIN TEMP: 24; 6HR MAX TEMP: 29; 6HR PCP: 0.02; MT WASHINGTON SNOW 9 9 100 S53 N/A VSB 1/16WCI -19 6HR MIN TEMP: 8; 6HR MAX TEMP: 13; 6HR PCP: 0.02; $$ VTZ005-007-008-300700- VERMONT CITY SKY/WX TMP DP RH WIND PRES REMARKS ST JOHNSBURY N/A 24 21 88 MISG 29.87F MONTPELIER LGT SNOW 23 19 85 S10 29.87F FOG WCI 12 BURLINGTON LGT SNOW 27 22 81 S12G20 29.84F WCI 17 $$ MAZ007-012-024-CTZ003-RIZ002-NYZ038-NYZ072-300700- SOUTHERN NEW ENGLAND AND NY CITY SKY/WX TMP DP RH WIND PRES REMARKS BOSTON CLOUDY 28 22 78 E8 30.02F WORCESTER CLOUDY 25 20 81 SE5 29.94F NANTUCKET CLOUDY 31 26 82 E8 30.03F PROVIDENCE CLOUDY 29 24 82 N3 30.01F HARTFORD FLURRIES 29 23 78 CALM 29.96F ALBANY LGT SNOW 28 23 81 S13G25 29.87F WCI 17 NEW YORK CITY LGT SNOW 31 29 92 S8 29.97F VSB 1 $$ ANZ081-ANZ082-ANZ150-NHZ014-MEZ023>029-300700- COASTAL MARINE OBSERVATIONS STATION/POSITION TIME TEMP WIND PRES WAVE AIR SEA DIR/SP/G HT/PER (UTC) (F) (DEG/KT/KT) (MB) (FT/S) MOUNT DESERT ROC 0600 35 1017.0F MATINICUS ROCK 0600 200/ 12/ 14 1017.3F PORTLAND WX BUOY 0550 32 40 300/ 2/ 6 1016.9F 2/10 WELLS 0500 29 33 230/ 5/ 7 1016.9F ISLE OF SHOALS 0600 32 200/ 15/ 16 1016.2F JEFFREYS LEDGE 0521 44 N/A 4/11 CASHES LEDGE BUO 0550 36 44 210/ 14/ 16 1017.8S 3/11 $$ .............KEY.............. WCI - WIND CHILL TC - TEMPERATURE IN CELSIUS VSB - VISIBILITY IN MILES HX - HEAT INDEX FAIR- INDICATES FEW OR NO CLOUDS BELOW 12,000 FT, WITH NO SIGNIFICANT WEATHER AND/OR OBSTRUCTIONS TO VISIBILITY.

USA.gov is the U.S. government's official web portal to all federal, state and local government web resources and services.